RH
32 34 34 34 31 26 27 27 25 21 19 19 23 28 30 15 8 4 3 4 5 4 4 4 5 6 7 6 6 6 6 6 7 7 7 8 8 9 9 10 11 13 13
33 34 33 34 30 28 28 28 27 26 25 20 16 19 27 30 14 7 3 4 4 4 5 6 6 8 9 9 9 9 8 8 8 8 8 9 10 11 10 11 12 12 12
35 34 35 32 32 31 31 29 28 28 28 26 20 13 15 25 30 10 5 3 5 6 7 7 8 8 9 10 10 10 10 9 9 10 11 11 11 11 11 11 11 10 9
36 35 34 35 35 36 34 32 29 29 29 28 25 18 11 14 27 26 8 6 6 7 8 8 8 8 9 9 10 10 10 11 11 11 11 10 10 10 9 8 8 8 9
36 37 36 36 37 39 37 33 31 31 31 29 27 25 17 9 17 28 18 8 8 9 9 10 10 10 10 10 10 10 10 10 9 9 9 8 8 8 9 10 11 13 15
38 39 39 38 41 39 38 34 33 32 32 30 27 25 24 16 10 22 27 22 14 9 8 9 9 9 9 10 10 11 11 12 13 14 15 17 19 20 20 20 20 20 18
41 42 41 40 43 41 38 35 34 34 34 34 32 28 25 24 17 12 25 28 26 25 24 22 21 20 18 18 17 17 16 16 15 15 15 14 16 17 17 18 20 21 20
44 46 47 44 45 41 41 37 36 35 35 35 32 30 27 24 25 21 18 15 16 18 20 22 23 24 25 25 24 24 24 24 23 23 21 21 20 20 20 20 19 19 18
48 47 47 46 48 45 43 41 37 35 36 37 36 36 34 28 25 25 25 24 25 26 26 25 25 25 26 26 25 25 24 24 23 22 20 18 17 17 17 18 19 20 19
49 48 45 46 48 47 43 43 42 36 37 38 39 40 39 36 32 29 27 28 27 25 26 26 26 26 26 27 27 26 25 25 25 25 24 25 24 24 24 25 24 24 25
47 48 46 45 46 46 44 44 44 41 38 39 41 42 41 39 38 34 31 30 30 31 30 27 26 26 27 27 28 28 29 28 27 26 25 25 24 24 25 24 22 16 8
46 44 43 43 44 44 44 44 44 43 41 40 41 43 44 42 42 40 36 33 32 32 32 32 29 29 28 27 28 28 28 27 23 20 22 26 23 18 11 3 2 2 4
37 42 47 46 42 41 42 44 44 44 43 42 42 42 45 45 44 44 42 39 35 32 33 32 32 31 30 30 29 30 26 23 24 25 24 19 11 4 3 6 7 8 8
30 33 36 46 48 45 44 43 44 44 44 43 42 42 44 46 46 45 45 45 42 38 34 34 32 32 31 30 29 27 24 27 28 25 18 6 5 7 8 9 9 10 11
61 32 31 45 47 47 46 47 47 47 44 44 43 43 44 45 46 46 47 49 50 45 38 36 35 33 32 30 28 25 29 28 26 20 8 6 8 9 10 12 14 16 17
58 44 36 37 46 49 48 46 45 51 48 45 44 44 44 45 45 47 49 52 52 47 42 37 36 33 31 29 27 30 26 23 17 9 4 8 9 11 13 16 17 16 15
55 48 42 39 41 50 49 48 47 48 49 50 52 51 51 47 48 52 52 53 53 49 43 38 34 31 30 30 30 23 14 9 7 6 7 9 11 14 17 16 16 16 17
69 58 50 44 42 47 51 52 51 50 49 50 48 48 49 48 52 52 52 52 52 48 42 37 34 31 31 30 22 14 8 6 7 8 10 11 15 18 18 17 18 19 21
70 70 72 58 43 42 50 54 54 57 58 58 59 56 50 52 55 55 52 51 50 46 41 38 33 32 32 29 28 26 14 7 7 9 12 16 19 19 19 19 22 23 23
57 70 71 74 62 44 50 55 55 55 55 58 59 61 59 59 60 55 49 44 46 46 42 37 33 34 33 31 28 26 28 22 11 9 12 15 19 23 24 25 26 27 26
37 64 71 69 69 54 48 47 51 53 53 55 54 54 59 63 62 52 44 41 46 48 45 37 37 36 35 36 35 33 30 24 18 12 11 13 17 22 26 28 27 26 24
30 55 69 74 62 57 52 51 53 52 50 47 44 52 54 62 60 54 48 44 48 53 44 40 39 39 42 44 45 46 46 40 36 26 16 13 12 12 16 18 20 22 22
32 36 60 70 69 54 56 55 54 53 50 46 44 56 60 64 62 56 53 49 56 61 44 43 43 46 49 50 49 49 50 50 49 42 36 26 20 19 21 23 24 22 21
38 35 49 53 60 58 53 48 53 53 49 47 49 58 67 70 67 60 60 55 99 63 48 46 47 53 53 51 50 50 50 53 55 52 40 25 20 22 23 22 21 20 18
40 59 42 56 73 54 39 52 58 54 49 50 62 71 74 71 64 60 63 96 100 59 50 49 52 57 56 53 52 51 51 53 55 55 45 26 22 23 22 20 19 16 12
31 44 51 60 69 52 50 43 52 56 46 54 62 73 71 68 64 68 74 99 100 57 52 51 56 60 58 55 54 55 56 56 59 54 33 23 22 21 20 16 12 12 14
Wind_Speed
8 5 3 3 7 10 9 10 10 10 10 9 7 6 7 7 8 10 8 5 2 3 4 4 3 3 3 4 3 4 5 6 8 8 9 10 11 11 11 12 12 13 13
9 7 5 1 6 9 9 9 9 10 11 11 10 8 6 6 6 6 5 3 3 3 3 3 3 2 2 2 2 3 3 4 6 7 9 9 11 11 12 12 14 15 14
10 9 5 1 3 6 7 8 8 9 10 11 12 10 8 8 6 6 4 2 3 3 2 3 3 3 4 4 3 3 3 5 7 9 10 10 11 12 13 13 14 15 16
12 9 5 2 1 6 8 7 7 8 10 12 12 12 11 8 6 5 3 2 3 3 3 3 2 3 4 4 4 4 6 7 8 10 12 13 13 14 14 14 15 15 15
12 11 7 4 2 6 8 5 5 6 8 10 12 13 13 10 7 5 3 2 2 2 2 3 3 4 5 6 6 6 7 8 9 10 12 13 13 13 14 14 14 13 15
14 12 9 8 3 7 5 3 4 5 7 9 12 13 12 12 9 5 3 2 2 2 2 2 3 3 5 5 6 7 8 9 10 10 11 11 11 12 13 13 14 15 15
14 11 8 11 11 8 8 5 4 4 4 7 10 12 12 12 11 7 4 3 2 3 4 4 5 5 5 6 7 8 9 10 10 11 11 12 11 13 13 13 14 15 15
16 15 17 14 13 11 11 9 7 6 4 5 8 10 12 13 12 10 9 7 6 6 6 6 7 7 8 8 8 9 10 11 12 11 13 11 12 13 13 14 15 15 15
20 16 18 20 19 16 15 11 11 8 6 4 6 9 11 13 13 12 9 8 7 7 8 8 9 9 10 10 11 11 11 12 13 14 14 13 14 14 15 16 16 17 18
23 22 21 22 22 21 18 14 13 12 8 6 6 6 8 10 12 13 13 11 10 10 10 10 10 10 10 10 11 12 13 14 15 17 16 17 18 19 19 20 20 20 21
25 27 25 23 21 21 19 17 16 15 12 10 9 8 7 7 10 11 13 13 13 12 12 12 12 12 12 12 14 14 15 17 18 20 18 19 20 20 21 20 20 21 21
22 23 23 25 24 23 22 20 18 18 17 14 13 11 11 8 8 10 12 13 14 14 15 15 15 15 15 15 15 17 17 19 21 21 19 21 21 22 22 20 20 18 16
25 25 25 25 28 25 23 23 22 21 20 19 16 15 12 12 11 11 13 14 14 16 17 17 17 18 18 18 18 21 21 21 22 22 21 22 21 18 16 16 14 14 16
33 29 28 27 29 26 26 27 26 24 22 21 19 17 14 13 13 12 13 14 16 17 19 20 20 19 20 20 21 21 22 22 24 23 21 19 16 15 15 14 14 15 15
27 35 33 27 28 28 28 28 28 26 24 23 22 20 18 15 17 15 13 15 16 19 20 21 22 22 21 22 23 22 23 23 25 24 18 17 15 15 14 15 15 16 17
28 34 33 29 29 27 28 27 26 26 27 25 23 20 20 19 20 18 17 16 17 19 21 23 23 22 23 23 23 24 24 24 23 23 17 17 17 16 16 16 18 19 20
30 34 34 31 30 28 25 25 24 23 26 22 22 20 22 21 19 19 19 19 18 20 21 23 23 23 23 23 24 24 22 22 20 20 19 17 18 18 18 19 19 21 22
28 30 35 35 32 31 29 28 25 22 25 19 20 19 21 18 19 20 21 21 21 22 21 22 22 22 22 22 22 21 20 19 19 19 19 19 19 19 20 22 22 23 25
33 30 28 36 37 32 30 30 28 27 25 23 22 22 22 20 22 22 22 22 23 23 22 21 20 21 21 21 21 20 19 19 19 20 20 21 21 23 24 24 26 27 28
43 34 34 33 38 36 31 32 32 33 31 29 29 24 22 24 24 25 27 25 26 23 21 20 19 19 20 19 20 19 19 19 20 21 22 25 25 25 26 28 29 31 32
44 41 39 43 43 43 38 34 34 34 33 34 34 32 31 29 27 28 28 26 26 23 20 18 17 17 17 17 19 20 19 21 22 23 24 27 29 29 30 30 32 35 35
40 44 45 44 49 47 46 37 36 34 32 33 31 31 32 31 30 29 28 25 24 22 20 17 16 14 15 16 18 19 21 21 20 24 26 27 30 31 33 34 35 37 39
37 43 53 54 52 50 50 43 40 37 35 32 31 32 30 29 29 27 27 25 23 21 19 16 15 14 14 16 19 21 24 25 26 26 28 29 31 32 34 35 37 38 40
40 39 48 52 54 53 53 48 44 41 38 30 29 28 29 28 26 27 27 25 20 21 19 16 14 15 16 19 21 24 27 29 30 30 30 31 32 34 36 37 36 36 37
40 41 40 45 46 54 54 49 46 44 40 31 28 29 29 27 27 28 27 24 23 22 19 17 16 17 19 22 25 28 31 33 35 35 33 32 33 35 38 39 39 39 39
30 45 43 41 47 53 51 48 48 46 40 32 33 33 30 29 28 28 26 29 27 23 20 19 18 19 22 26 29 32 35 37 39 40 41 38 39 36 38 38 38 40 44
Wind_Direction
209 220 245 310 346 353 4 8 9 12 12 9 358 348 338 333 326 326 321 311 260 230 227 215 200 186 202 227 239 221 227 242 245 249 254 261 270 281 287 290 291 296 297
226 219 217 299 352 351 3 1 8 14 15 10 3 349 337 326 329 328 319 315 276 221 206 197 188 193 208 245 239 232 234 245 246 252 259 268 276 281 286 292 293 297 298
228 225 209 159 6 348 353 353 2 13 12 10 8 1 346 336 336 329 318 273 233 220 205 199 201 194 211 216 223 231 248 251 256 262 267 270 275 283 288 289 290 294 296
219 212 197 162 4 0 341 349 1 13 13 9 10 12 5 348 335 322 317 280 217 201 203 205 214 239 249 251 249 250 257 263 268 273 277 282 286 288 290 289 290 294 294
205 193 199 199 192 320 322 343 353 4 17 13 11 14 16 10 350 325 311 288 253 229 231 241 253 257 266 271 277 279 275 277 279 281 283 286 291 289 290 290 291 289 288
205 201 201 194 277 297 282 307 325 345 10 14 11 14 21 23 11 332 306 295 295 290 287 290 281 287 289 295 304 301 303 300 299 296 293 296 303 295 291 292 292 289 288
210 199 215 219 295 265 255 263 277 302 350 10 13 15 23 27 25 16 351 351 6 6 357 353 351 345 335 337 330 327 317 308 303 302 303 302 301 299 299 298 294 294 295
233 245 257 245 273 252 250 263 260 269 306 355 10 15 18 24 26 32 36 36 38 43 36 24 12 3 353 346 337 328 318 311 308 308 298 311 297 298 296 295 295 296 292
246 240 240 252 258 253 253 252 267 262 277 318 355 6 11 18 21 22 19 16 7 3 3 357 352 348 345 340 333 325 318 316 312 306 303 302 295 291 291 293 292 291 290
242 235 238 253 257 253 251 256 264 269 266 282 313 338 357 5 10 12 9 6 356 347 342 338 337 332 327 326 319 313 313 311 306 300 299 296 292 290 290 288 291 290 288
239 246 242 244 245 247 253 259 261 267 266 272 282 308 326 350 355 357 359 358 354 344 334 329 323 319 317 314 310 311 312 308 305 299 302 295 292 291 289 292 291 285 284
238 241 249 244 240 243 248 256 258 261 264 265 274 286 305 320 335 338 342 343 345 341 335 327 323 315 311 308 307 307 310 307 303 299 302 296 293 292 295 295 286 294 296
244 244 246 249 251 246 247 251 254 256 257 262 266 267 276 297 313 319 326 332 333 333 328 325 319 312 310 311 311 310 309 306 302 303 303 296 295 296 296 296 301 296 296
251 246 248 251 254 254 252 250 251 252 254 259 262 263 266 276 286 296 313 319 323 324 322 318 315 311 310 307 306 304 304 305 301 301 299 293 291 291 289 291 292 294 296
243 252 248 247 252 254 252 250 251 254 254 256 258 262 263 268 277 290 297 306 314 318 316 313 311 309 305 303 303 303 302 302 300 298 296 288 286 285 286 288 291 293 294
237 250 255 248 250 251 254 251 252 253 255 255 256 259 263 262 269 282 286 298 307 309 311 309 306 302 301 303 305 305 304 300 297 294 290 287 284 283 284 286 289 292 295
242 248 254 255 248 246 247 251 250 250 255 256 259 257 259 265 270 274 282 293 299 302 303 300 299 299 302 305 307 307 304 299 295 290 289 281 281 281 283 286 290 294 297
244 247 254 253 252 242 243 247 249 245 252 253 258 260 263 268 271 275 283 290 293 294 292 293 293 294 300 305 308 308 304 299 296 291 287 286 281 281 286 290 293 294 296
227 232 243 253 250 248 241 245 249 250 253 253 255 260 263 269 273 280 286 289 287 285 288 288 287 293 299 304 308 311 307 303 298 292 291 289 289 290 290 289 292 293 294
228 228 236 238 250 252 244 242 247 250 254 257 260 261 263 266 275 281 284 282 280 277 278 280 284 290 297 308 316 317 313 307 300 297 295 292 290 291 291 293 292 293 293
233 224 236 241 242 249 246 245 248 253 256 259 262 266 267 270 274 279 280 283 276 273 270 270 278 290 303 315 321 322 324 319 313 304 299 296 295 293 293 292 294 293 293
240 221 229 239 242 243 247 245 247 251 255 259 265 260 261 266 274 278 284 280 269 265 262 266 274 292 308 318 323 325 323 321 314 308 303 299 296 295 295 295 295 296 295
240 234 223 233 243 244 245 243 245 249 254 258 260 252 254 263 270 277 280 278 271 259 257 266 280 296 307 316 321 326 327 323 318 314 306 304 298 299 296 297 297 296 296
246 235 235 233 238 243 242 246 248 252 256 262 261 252 253 260 268 276 275 276 261 256 256 264 279 293 304 311 317 322 325 323 319 314 311 305 302 301 298 296 296 296 295
238 241 238 233 235 241 243 242 245 250 254 252 246 248 249 255 264 272 274 273 263 252 255 265 278 292 302 309 316 319 320 321 319 314 309 303 302 304 302 303 303 300 299
235 237 237 236 232 240 243 242 244 248 250 248 241 242 246 256 263 265 269 251 264 247 256 267 278 290 301 309 314 316 318 319 319 316 313 310 308 307 305 304 304 302 300